Home > Weather > Ajaccio > Past weeks

Flag for France Past Weather in Ajaccio, Corsica, France — Yesterday and Last 2 Weeks

Now
70 °F

Passing clouds.


Feels Like: 70 °F
Forecast: 68 / 79 °F
Wind: 3 mph from East

Location: Ajaccio Airport

Current Time: Jul 24, 2016 at 5:07:56 AM

Latest Report: Jul 24, 2016 at 4:30 AM


Visibility: N/A

Pressure: 29.92 "Hg

Humidity: 83%

Dew Point: 64 °F

Location of AjaccioLocation

Past Weather in Ajaccio — Graph

°F

Ajaccio Temperature Yesterday

Maximum temperature yesterday: 91 °F (at 12:30 PM)
Minimum temperature yesterday: 73 °F (at 9:00 PM)
Average temperature yesterday: 80 °F

High & Low Weather Summary for the Past Weeks

 TemperatureHumidityPressure
High93 °F (Jul 10, 5:30 PM)89% (Jul 23, 9:00 PM)30.18 "Hg (Jul 23, 9:00 PM)
Low57 °F (Jul 16, 6:30 AM)18% (Jul 19, 2:30 PM)29.77 "Hg (Jul 23, 6:00 AM)
Average75 °F57%30.00 "Hg
* Reported Jul 9 4:00 AM — Jul 24 4:00 AM, Ajaccio, Weather by CustomWeather, © 2016

Note: Actual official high and low records may vary slightly from our data, if they occured in-between our weather recording intervals... More about our weather records

Advertising

Ajaccio Weather History for the Previous 24 Hours

Scroll right to see more
 ConditionsComfort  
Time TempWeatherWind HumidityBarometerVisibility
4:00 AM
Sun, Jul 24
70 °FPassing clouds.1 mph83%29.95 "HgN/A
3:30 AM70 °FPassing clouds.No wind88%29.95 "HgN/A
3:00 AM72 °FPassing clouds.3 mph83%29.95 "HgN/A
2:30 AM72 °FOvercast.No wind83%29.95 "HgN/A
2:00 AM72 °FPassing clouds.5 mph83%29.95 "HgN/A
1:30 AM72 °FPassing clouds.6 mph83%29.95 "HgN/A
1:00 AM72 °FOvercast.7 mph83%29.98 "HgN/A
12:30 AM72 °FOvercast.7 mph88%29.98 "HgN/A
12:00 AM72 °FOvercast.7 mph88%29.98 "HgN/A
11:30 PM
Sat, Jul 23
73 °FMostly cloudy.7 mph83%29.98 "HgN/A
11:00 PM73 °FOvercast.8 mph83%29.98 "HgN/A
10:30 PM73 °FOvercast.7 mph83%29.98 "HgN/A
10:00 PM73 °FPassing clouds.7 mph83%29.95 "HgN/A
9:30 PM73 °FMostly cloudy.6 mph89%29.95 "HgN/A
9:00 PM73 °FMore clouds than sun.7 mph89%29.95 "HgN/A
8:30 PM75 °FBroken clouds.10 mph83%29.95 "HgN/A
8:00 PM75 °FPartly sunny.10 mph83%29.92 "HgN/A
7:30 PM77 °FSunny.9 mph79%29.92 "Hg10 mi
7:00 PM77 °FScattered clouds.10 mph79%29.92 "HgN/A
6:30 PM79 °FPartly sunny.8 mph74%29.92 "HgN/A
6:00 PM79 °FBroken clouds.5 mph74%29.92 "HgN/A
5:30 PM79 °FBroken clouds.5 mph74%29.92 "HgN/A
5:00 PM79 °FScattered clouds.6 mph74%29.95 "HgN/A
4:30 PM79 °FBroken clouds.10 mph79%29.95 "HgN/A
4:00 PM79 °FBroken clouds.15 mph79%29.92 "HgN/A
3:30 PM79 °FPartly sunny.16 mph79%29.92 "HgN/A
3:00 PM79 °FPartly sunny.18 mph79%29.89 "HgN/A
2:30 PM81 °FPartly sunny.17 mph74%29.89 "HgN/A
2:00 PM82 °FPartly sunny.24 mph66%29.89 "HgN/A
1:30 PM81 °FScattered clouds.21 mph74%29.86 "HgN/A
1:00 PM82 °FScattered clouds.21 mph66%29.86 "HgN/A
12:30 PM91 °FPassing clouds.20 mph38%29.86 "HgN/A
12:00 PM88 °FPassing clouds.10 mph49%29.86 "HgN/A
11:30 AM86 °FPassing clouds.9 mph49%29.86 "HgN/A
11:00 AM84 °FPassing clouds.5 mph51%29.86 "HgN/A
10:30 AM84 °FScattered clouds.6 mph55%29.86 "HgN/A
10:00 AM82 °FScattered clouds.5 mph58%29.86 "HgN/A
9:30 AM81 °FScattered clouds.2 mph62%29.86 "HgN/A
9:00 AM79 °FPartly sunny.3 mph70%29.86 "HgN/A
8:30 AM79 °FPartly sunny.No wind65%29.86 "HgN/A
8:00 AM79 °FPartly sunny.3 mph65%29.86 "HgN/A
7:30 AM79 °FSprinkles. Partly sunny.12 mph65%29.83 "HgN/A
7:00 AM82 °FPassing clouds.7 mph51%29.83 "HgN/A
6:30 AM86 °FThundershowers. Passing clouds.3 mph35%29.80 "HgN/A
6:00 AM88 °FPassing clouds.8 mph29%29.77 "HgN/A
5:30 AM88 °FPassing clouds.3 mph31%29.80 "HgN/A
5:00 AM82 °FPassing clouds.5 mph40%29.80 "HgN/A
Weather by CustomWeather, © 2016

See weather overviewHow to use our weather pages